Date String (YYYY-MM-DD hh:mm:ss) UTC,Instrument flags,Ambient pressure (hPa),Sample flow (lpm),Bypass flow (lpm),Sample temperature (°C),Ambient temperature (°C),ASC tube jacket temperature (°C),LED temperature (°C),Box temperature (°C),Sample RH (%),Span deviation,Mass concentration (μg/m³),Mass concentration (μg/m³),Mass concentration (μg/m³)
DateTimeUTC,F1_M11,P_M11,Q1_M11,Q2_M11,T1_M11,T2_M11,T3_M11,T4_M11,T5_M11,U1_M11,ZSPAN_M11,X0_M11,X2_M11,X1_M11
2022-01-24 22:00:00,,0820.9,5.00,0.00,21.6,21.1,00.0,30.6,23.3,09.5,0000.0,0008.26,0002.87,0002.12
2022-01-24 22:01:00,,0820.8,5.00,0.00,21.6,21.0,00.0,30.6,23.3,09.5,0000.0,0008.22,0002.87,0002.12
2022-01-24 22:02:00,,0820.8,5.02,0.00,21.6,21.0,00.0,30.6,23.3,09.9,0000.0,0008.02,0002.88,0002.12
2022-01-24 22:03:00,,0820.9,5.00,0.00,21.5,21.0,00.0,30.6,23.2,09.8,0000.0,0007.78,0002.88,0002.11
2022-01-24 22:04:00,,0820.8,5.00,0.00,21.5,21.0,00.0,30.6,23.2,09.7,0000.0,0007.83,0002.90,0002.11
2022-01-24 22:05:00,,0820.8,4.98,0.00,21.5,20.9,00.0,30.6,23.2,09.7,0000.0,0007.65,0002.93,0002.12
2022-01-24 22:06:00,,0820.9,5.00,0.00,21.5,20.9,00.0,30.6,23.2,10.0,0000.0,0007.02,0002.91,0002.14
2022-01-24 22:07:00,,0821.0,5.00,0.00,21.5,21.0,00.0,30.6,23.2,10.1,0000.0,0005.26,0002.91,0002.14
2022-01-24 22:08:00,,0821.0,5.00,0.00,21.5,21.0,00.0,30.6,23.2,09.7,0000.0,0005.19,0002.84,0002.16
2022-01-24 22:09:00,,0821.0,5.00,0.00,21.5,21.0,00.0,30.6,23.3,09.8,0000.0,0005.30,0002.84,0002.14
2022-01-24 22:10:00,,0821.0,5.00,0.00,21.5,20.9,00.0,30.6,23.2,09.8,0000.0,0005.41,0002.88,0002.14
2022-01-24 22:11:00,,0821.0,5.01,0.00,21.5,20.9,00.0,30.6,23.3,09.9,0000.0,0006.38,0002.92,0002.15
2022-01-24 22:12:00,,0821.0,4.99,0.00,21.5,21.0,00.0,30.6,23.3,09.4,0000.0,0006.47,0002.88,0002.16
2022-01-24 22:13:00,,0821.0,5.00,0.00,21.5,20.9,00.0,30.6,23.3,09.8,0000.0,0007.05,0002.85,0002.16
2022-01-24 22:14:00,,0821.0,5.00,0.00,21.5,20.9,00.0,30.6,23.2,09.9,0000.0,0007.21,0002.85,0002.18
2022-01-24 22:15:00,,0821.0,5.00,0.00,21.5,20.9,00.0,30.6,23.2,09.8,0000.0,0007.25,0002.82,0002.18
2022-01-24 22:16:00,,0821.0,5.00,0.00,21.5,20.9,00.0,30.6,23.1,09.7,0000.0,0007.26,0002.79,0002.17
2022-01-24 22:17:00,,0821.0,5.01,0.00,21.5,20.9,00.0,30.6,23.1,09.8,0000.0,0007.46,0002.82,0002.18
2022-01-24 22:18:00,,0821.0,5.00,0.00,21.4,20.9,00.0,30.5,23.1,09.7,0000.0,0007.64,0002.82,0002.18
2022-01-24 22:19:00,,0821.0,5.00,0.00,21.4,20.8,00.0,30.5,23.1,09.6,0000.0,0007.81,0002.85,0002.19
2022-01-24 22:20:00,,0821.0,5.00,0.00,21.4,20.8,00.0,30.5,23.0,09.7,0000.0,0007.85,0002.84,0002.22
2022-01-24 22:21:00,,0820.9,5.00,0.00,21.4,20.8,00.0,30.5,23.0,09.7,0000.0,0007.84,0002.85,0002.24
2022-01-24 22:22:00,,0821.0,4.99,0.00,21.3,20.7,00.0,30.5,23.0,09.8,0000.0,0007.53,0002.86,0002.23
2022-01-24 22:23:00,,0821.0,4.99,0.00,21.3,20.7,00.0,30.5,23.0,10.0,0000.0,0008.34,0002.87,0002.23
2022-01-24 22:24:00,,0821.0,5.00,0.00,21.3,20.7,00.0,30.5,23.0,10.0,0000.0,0008.17,0002.89,0002.23
2022-01-24 22:25:00,,0820.9,5.00,0.00,21.3,20.7,00.0,30.5,22.9,10.0,0000.0,0009.23,0002.89,0002.23
2022-01-24 22:26:00,,0821.0,5.00,0.00,21.3,20.7,00.0,30.5,23.0,10.0,0000.0,0009.50,0002.88,0002.23
2022-01-24 22:27:00,,0821.0,5.01,0.00,21.4,21.2,00.0,30.5,23.2,09.7,0000.0,0009.65,0002.90,0002.24
2022-01-24 22:28:00,,0821.0,5.00,0.00,21.5,22.1,00.0,30.5,23.5,09.7,0000.0,0009.49,0002.88,0002.24
2022-01-24 22:29:00,,0821.0,5.01,0.00,21.7,22.8,00.0,30.6,23.8,09.7,0000.0,0009.36,0002.91,0002.24
2022-01-24 22:30:00,,0821.0,5.00,0.00,21.8,22.7,00.0,30.6,23.9,09.6,0000.0,0009.44,0002.92,0002.24
2022-01-24 22:31:00,,0821.0,4.99,0.00,21.8,22.5,00.0,30.6,23.8,09.6,0000.0,0009.88,0002.97,0002.24
2022-01-24 22:32:00,,0821.0,4.99,0.00,21.8,22.2,00.0,30.7,23.7,09.6,0000.0,0009.92,0003.01,0002.23
2022-01-24 22:33:00,,0821.0,5.01,0.00,21.8,21.9,00.0,30.7,23.6,09.5,0000.0,0009.82,0003.02,0002.24
2022-01-24 22:34:00,,0821.0,5.00,0.00,21.8,21.7,00.0,30.7,23.5,09.5,0000.0,0008.89,0003.02,0002.25
2022-01-24 22:35:00,,0821.0,5.00,0.00,21.8,21.6,00.0,30.7,23.5,09.5,0000.0,0009.14,0002.99,0002.26
2022-01-24 22:36:00,,0821.0,5.00,0.00,21.7,21.5,00.0,30.7,23.4,09.8,0000.0,0008.44,0003.04,0002.26
2022-01-24 22:37:00,,0821.0,5.00,0.00,21.7,21.3,00.0,30.7,23.4,09.7,0000.0,0008.18,0003.11,0002.26
2022-01-24 22:38:00,,0821.0,5.00,0.00,21.7,21.3,00.0,30.7,23.4,09.7,0000.0,0008.05,0003.10,0002.26
2022-01-24 22:39:00,,0821.0,5.00,0.00,21.7,21.2,00.0,30.7,23.3,09.9,0000.0,0008.15,0003.08,0002.25
2022-01-24 22:40:00,,0821.0,5.00,0.00,21.7,21.2,00.0,30.7,23.3,10.0,0000.0,0008.11,0003.07,0002.24
2022-01-24 22:41:00,,0821.1,5.00,0.00,21.7,21.1,00.0,30.7,23.3,09.8,0000.0,0008.23,0003.06,0002.24
2022-01-24 22:42:00,,0821.0,5.01,0.00,21.6,21.0,00.0,30.7,23.3,09.8,0000.0,0008.53,0003.05,0002.23
2022-01-24 22:43:00,,0821.0,5.01,0.00,21.6,21.0,00.0,30.7,23.3,09.8,0000.0,0008.50,0003.00,0002.22
2022-01-24 22:44:00,,0821.1,5.01,0.00,21.6,21.0,00.0,30.7,23.3,09.8,0000.0,0008.46,0002.98,0002.20
2022-01-24 22:45:00,,0821.1,4.99,0.00,21.6,21.0,00.0,30.7,23.3,10.0,0000.0,0008.44,0003.03,0002.21
2022-01-24 22:46:00,,0821.1,5.00,0.00,21.6,21.0,00.0,30.7,23.3,10.0,0000.0,0008.65,0003.05,0002.20
2022-01-24 22:47:00,,0821.1,5.00,0.00,21.6,21.0,00.0,30.7,23.3,10.0,0000.0,0008.65,0003.00,0002.20
2022-01-24 22:48:00,,0821.1,5.01,0.00,21.6,21.0,00.0,30.7,23.3,09.9,0000.0,0008.68,0003.04,0002.20
2022-01-24 22:49:00,,0821.1,5.00,0.00,21.6,21.0,00.0,30.7,23.3,09.9,0000.0,0008.66,0003.08,0002.20
2022-01-24 22:50:00,,0821.1,5.00,0.00,21.6,21.0,00.0,30.7,23.3,09.9,0000.0,0008.47,0003.10,0002.19
2022-01-24 22:51:00,,0821.1,5.00,0.00,21.6,21.0,00.0,30.7,23.3,10.0,0000.0,0008.51,0003.13,0002.20
2022-01-24 22:52:00,,0821.1,5.00,0.00,21.6,21.0,00.0,30.7,23.3,10.1,0000.0,0008.39,0003.12,0002.22
2022-01-24 22:53:00,,0821.1,5.00,0.00,21.6,21.0,00.0,30.7,23.3,10.3,0000.0,0007.79,0003.10,0002.22
2022-01-24 22:54:00,,0821.1,5.00,0.00,21.6,20.9,00.0,30.7,23.2,09.8,0000.0,0007.81,0003.14,0002.23
2022-01-24 22:55:00,,0821.1,5.00,0.00,21.5,20.7,00.0,30.6,23.2,09.8,0000.0,0008.41,0003.16,0002.25
2022-01-24 22:56:00,,0821.1,5.00,0.00,21.5,20.8,00.0,30.6,23.2,09.8,0000.0,0008.62,0003.14,0002.25
2022-01-24 22:57:00,,0821.1,5.00,0.00,21.5,20.8,00.0,30.6,23.2,10.0,0000.0,0008.14,0003.16,0002.26
2022-01-24 22:58:00,,0821.1,5.01,0.00,21.5,20.9,00.0,30.6,23.2,10.0,0000.0,0007.81,0003.20,0002.28
2022-01-24 22:59:00,,0821.1,5.01,0.00,21.5,20.9,00.0,30.6,23.2,10.1,0000.0,0007.74,0003.21,0002.29
